This demonstration page uses our WeatherBlox Daily Observations layout. Learn more.

Left ArrowRight Arrow

Hourly Observations for May 24, 2018

Temp ( °F °C ) Dew Point ( °F °C ) Humidity (%) Winds ( mph kmh ) Pressure ( in mb ) Visibility ( mi km ) Precip ( " mm )
12:53 am 00:53 Mostly Cloudy 55 12.8 52 11.1 90 90 N N/A 29.78 1008 10 16 N/A
1:53 am 01:53 Clear 54 12.2 52 11.1 93 93 N N/A 29.78 1008 10 16 N/A
2:53 am 02:53 Mostly Clear 54 12.2 53 11.7 97 97 N N/A 29.78 1008 10 16 N/A
3:53 am 03:53 Mostly Cloudy 53 11.7 52 11.1 96 96 SW 3 6 29.77 1008 10 16 N/A
4:53 am 04:53 Clear 52 11.1 51 10.6 97 97 SW 6 9 29.78 1008 10 16 N/A
5:53 am 05:53 Sunny 51 10.6 50 10 96 96 W 3 6 29.78 1008 10 16 N/A
6:53 am 06:53 Sunny 53 11.7 51 10.6 93 93 N N/A 29.79 1009 10 16 N/A
7:53 am 07:53 Sunny 61 16.1 53 11.7 75 75 N N/A 29.78 1009 10 16 N/A
8:53 am 08:53 Sunny 67 19.4 52 11.1 59 59 SW 15 24 29.77 1008 10 16 N/A
9:53 am 09:53 Sunny 70 21.1 52 11.1 53 53 SW 17 28 29.76 1008 10 16 N/A
10:53 am 10:53 Sunny 72 22.2 52 11.1 50 50 SW 14 22 29.76 1008 10 16 N/A
11:53 am 11:53 Sunny 73 22.8 53 11.7 50 50 SW 15 24 29.77 1008 10 16 N/A
12:53 pm 12:53 Mostly Sunny 73 22.8 53 11.7 50 50 SSW 12 19 29.77 1008 10 16 N/A
1:53 pm 13:53 Mostly Cloudy 79 26.1 48 8.9 34 34 W 17 28 29.75 1007 10 16 N/A
2:53 pm 14:53 Mostly Sunny 80 26.7 50 10 35 35 W 8 13 29.74 1007 10 16 N/A
3:53 pm 15:53 Sunny 82 27.8 47 8.3 29 29 SW 16 26 29.72 1006 10 16 N/A
4:53 pm 16:53 Mostly Sunny 82 27.8 46 7.8 28 28 WSW 16 26 29.71 1006 10 16 N/A
5:53 pm 17:53 Sunny 82 27.8 47 8.3 29 29 WSW 21 33 29.71 1006 10 16 N/A
6:53 pm 18:53 Partly Cloudy 79 26.1 46 7.8 31 31 WSW 15 24 29.71 1006 10 16 N/A
7:46 pm 19:46 Partly Cloudy with Thunderstorms 75 24 52 11 44 44 WSW 15 24 29.59 1002 10 16 N/A
7:53 pm 19:53 Partly Cloudy with Thunderstorms 74 23.3 51 10.6 45 45 WSW 16 26 29.71 1006 10 16 0.03 0.76
8:01 pm 20:01 Mostly Sunny 73 22.8 50 10 44 44 WSW 14 22 29.59 1002 10 16 N/A
8:53 pm 20:53 Sunny 74 23.3 47 8.3 38 38 W 20 31 29.72 1006 10 16 N/A
9:53 pm 21:53 Clear 69 20.6 47 8.3 45 45 WSW 15 24 29.74 1007 10 16 N/A
10:53 pm 22:53 Clear 67 19.4 47 8.3 49 49 SW 14 22 29.76 1008 10 16 N/A
11:53 pm 23:53 Clear 64 17.8 48 8.9 56 56 SW 18 30 29.77 1008 10 16 N/A

Powered by AerisWeather